Погода в Агзу

Россия / Приморский край     47°35′32″N   138°23′42″E
темп.,
°C
ветер,
м/с
пор.,
м/с
влажн.,
%
обл.,
%
осадки,
мм/ч
давл.,
гПа
погр.,
м
15 мая, сб
сб1501:00+7юв1168100 0.0 101411
04:00+6юв2173100 0.0 101421
07:00+8юв1267100 0.0 101290
10:00+6ююв3690100 1.4 1012330
13:00+6ююв3798100 6.0 1008388
16:00+5ююв1299100 7.5 1006147
19:00+5ююв1299100 1.5 1004131
22:00+5ссз1299100 3.8 100484
16 мая, вс
вс1601:00+7зюз1193100 0.3 100311
04:00+5ю1193100 0.3 100317
07:00+7ю2490100 0.0 1003111
10:00+14з51449100 0.0 10012153
13:00+17з6123480 0.0 10002629
16:00+18зсз611317 0.0 9992479
19:00+15зсз512480 0.0 10001709
22:00+8юз1167100 0.0 100217
17 мая, пн
пн1701:00+7юз11710 0.0 100211
04:00+5сз11790 0.0 100212
07:00+8ссз23690 0.0 1003141
10:00+16сз58350 0.0 10011569
13:00+20сз46260 0.0 10002214
16:00+22зсз46245 0.0 10002877
19:00+17ю22446 0.0 100161
22:00+10ю1156100 0.0 100311
18 мая, вт
вт1801:00+10с00650 0.0 100310
04:00+8ссз11750 0.0 100410
07:00+12ссз11630 0.0 100474
10:00+22юз13381 0.0 1003898
13:00+25юз252597 0.0 10013156
16:00+23ююв353590 0.0 1001835
19:00+19ююв23492 0.0 1001117
22:00+13ю11605 0.0 100211
19 мая, ср
ср1901:00+12ю11625 0.0 100210
04:00+11с11585 0.0 100210
07:00+14с22531 0.0 100388
10:00+22с24375 0.0 1003891
13:00+26сз483012 0.0 10022723
16:00+25сз473183 0.3 10022516
19:00+17с245292 0.3 100590
22:00+12ссз115750 0.4 100915